Theta_e
319 316 318 318 319 319 319 320 320 321 320 319 318 318 317 318 317 317 321 321 321 321 323 325 325 326 326 327 328 327 327 325 323 327 331 331 333 338 338 334 330 333 332 335
319 319 319 319 319 319 319 320 320 319 320 318 317 318 318 319 320 320 320 320 321 320 322 322 323 324 324 322 329 329 326 324 323 323 328 330 332 336 339 335 337 334 333 336
319 320 320 319 319 320 320 318 318 319 319 319 319 319 320 321 321 321 320 320 320 320 319 319 320 320 320 324 326 331 326 325 324 323 326 327 329 333 335 338 340 340 340 340
319 320 321 320 320 319 320 319 320 320 320 319 320 321 320 321 319 321 320 319 320 322 319 319 319 320 322 323 322 326 327 324 324 322 324 325 325 329 332 334 335 335 333 331
319 319 319 319 320 319 319 320 319 320 319 318 319 316 319 320 320 320 322 321 320 317 317 317 318 319 321 321 321 320 321 325 324 322 320 322 324 324 328 330 332 333 331 329
319 319 319 321 320 319 320 319 318 318 317 318 318 317 319 320 319 320 320 321 320 319 317 317 317 317 317 321 318 316 317 319 320 318 317 320 319 322 324 328 330 331 331 329
323 323 320 320 321 320 319 317 318 321 320 321 318 317 321 319 319 319 319 320 319 318 316 316 318 318 318 319 317 316 315 316 320 318 319 321 319 318 322 326 328 326 327 328
326 327 323 322 321 321 319 319 318 321 321 319 318 319 320 317 318 319 319 318 318 316 315 316 317 318 318 317 315 317 316 316 318 318 318 319 318 315 321 322 324 326 327 326
324 325 322 322 320 318 319 319 319 318 320 317 317 318 317 315 317 318 318 318 317 316 315 316 316 315 315 316 318 315 317 316 317 317 318 319 318 316 317 320 322 321 320 320
323 322 322 323 321 320 318 318 319 318 321 322 318 318 316 316 320 320 318 317 317 315 312 313 314 314 314 314 316 316 317 316 315 316 315 317 318 317 315 317 320 319 317 317
321 322 324 322 321 319 316 316 315 316 318 319 319 317 315 315 318 319 317 317 316 313 313 313 314 315 315 315 315 314 314 313 313 314 314 314 313 316 317 316 318 315 314 314
321 322 322 319 317 317 317 318 317 318 318 318 317 320 317 316 318 316 316 316 315 316 315 313 315 316 317 314 314 313 312 311 311 312 311 312 312 311 313 317 317 315 312 311
317 316 316 316 320 319 319 318 316 315 317 319 317 316 314 319 317 315 315 315 315 315 314 313 314 313 313 313 312 312 310 311 310 310 311 311 310 311 313 316 314 312 311 309
317 316 316 317 317 319 319 318 316 314 315 317 316 315 315 319 318 316 315 313 312 311 311 311 310 310 310 310 310 310 310 309 309 310 310 310 310 310 315 313 311 309 307 307
318 322 322 320 320 320 319 319 318 316 314 313 313 314 318 317 316 315 314 312 312 312 312 310 309 308 309 310 310 309 308 308 308 308 310 310 310 312 312 309 306 306 305 305
320 317 321 322 318 318 318 317 316 316 316 316 317 320 318 316 315 316 314 313 312 312 311 310 309 309 309 309 309 308 307 306 308 309 309 310 311 311 307 305 304 304 304 304
318 319 318 320 318 318 316 316 318 316 316 317 318 320 316 315 315 314 312 312 312 311 311 310 308 308 309 309 308 307 306 306 306 309 309 310 311 306 304 303 302 302 302 302
318 317 318 314 318 314 317 314 318 319 320 320 319 317 316 315 313 313 311 311 311 310 309 308 308 308 308 308 308 307 305 306 306 308 309 307 305 303 302 301 301 301 301 300
318 319 314 313 313 316 317 319 319 319 320 318 317 315 314 313 312 311 313 311 310 310 308 308 308 308 306 306 306 308 307 307 307 309 307 305 303 301 301 301 300 301 301 302
320 318 313 315 317 319 315 318 317 316 316 317 315 314 313 313 312 312 310 309 308 308 307 307 305 304 305 305 306 306 307 306 307 307 303 302 301 300 300 300 300 300 302 303
322 323 323 322 322 321 319 317 316 321 315 315 315 314 313 313 312 309 308 307 307 306 307 305 303 303 303 304 305 306 306 307 306 303 301 300 300 300 300 300 301 303 304 304
321 323 319 320 322 324 319 317 316 315 313 314 315 313 313 312 310 309 307 305 305 305 305 303 303 302 301 303 304 304 305 304 302 301 300 300 300 300 301 302 304 305 305 305
316 319 316 319 318 315 316 316 315 314 314 314 314 313 311 310 310 308 306 304 304 304 304 302 301 301 301 302 302 303 304 303 301 300 300 301 301 302 303 305 305 305 304 304
316 314 315 316 317 315 315 314 314 314 313 312 310 309 309 309 308 307 304 302 303 303 302 301 301 301 301 302 303 304 302 301 300 300 301 301 302 302 301 303 304 304 303 303
314 315 315 314 314 314 314 313 313 312 310 309 308 308 307 306 305 303 301 301 302 302 300 300 300 301 301 304 303 302 301 301 301 301 302 302 300 300 300 300 300 301 301 302
313 314 314 314 314 314 313 313 311 310 308 308 307 306 305 303 301 302 301 301 300 300 300 300 301 301 303 302 301 301 301 302 302 302 303 302 300 300 300 300 300 301 301 301
Wind_Speed
10 2 0 4 4 3 5 6 7 6 7 6 8 8 10 12 10 9 11 9 9 10 10 17 13 10 6 4 4 5 14 21 27 30 30 31 32 34 36 36 31 26 28 33
4 3 4 4 3 5 7 6 6 6 11 10 11 14 14 11 2 8 9 8 9 8 8 13 16 14 9 9 7 10 14 18 22 27 29 28 30 33 33 31 30 27 31 32
3 4 4 5 6 6 5 7 8 7 9 8 7 9 10 15 8 8 8 8 7 9 9 8 12 10 15 22 14 8 12 18 23 26 29 33 35 31 30 32 32 32 26 21
4 6 3 1 3 8 5 8 9 8 6 3 2 9 14 2 12 3 7 6 8 8 10 8 8 24 29 26 28 22 18 20 22 26 28 32 27 27 29 29 33 24 20 12
7 9 8 6 5 8 5 1 5 8 10 4 8 3 6 16 13 18 19 17 22 19 18 16 25 26 24 25 28 27 26 25 27 28 31 30 30 29 26 31 33 35 23 14
10 8 5 2 5 4 6 8 8 5 3 1 2 1 6 5 7 11 11 13 10 10 12 14 21 23 23 20 23 24 27 22 21 20 24 23 27 32 29 29 26 27 25 19
10 2 5 6 3 8 9 7 5 4 4 4 15 7 1 3 6 9 9 9 9 9 11 12 14 18 18 18 22 25 21 20 19 27 20 22 24 25 28 29 22 24 24 24
4 1 7 5 2 1 4 2 3 4 3 4 5 4 1 5 6 8 9 7 7 7 5 7 10 15 17 15 16 15 16 14 16 14 18 17 22 24 24 24 24 23 24 26
6 5 14 10 5 6 4 3 4 1 4 3 3 5 4 9 6 8 8 10 8 9 8 8 13 15 14 13 5 11 15 13 14 11 14 15 20 22 25 24 19 19 19 20
5 5 7 5 2 3 6 6 3 4 2 5 2 4 4 8 5 6 6 8 8 8 8 7 7 8 10 9 8 20 23 18 22 22 14 17 20 23 24 22 19 18 18 17
5 3 8 9 2 4 7 3 4 3 2 3 4 4 6 13 5 5 9 8 7 6 6 4 5 6 11 17 20 15 19 24 26 24 23 22 23 23 25 21 17 19 18 18
3 1 3 8 20 14 3 1 1 4 7 5 4 8 4 3 5 13 8 8 4 3 3 5 8 11 12 16 18 22 23 23 26 28 30 27 22 27 26 17 17 18 21 19
1 2 3 10 5 7 5 10 6 3 1 4 2 6 8 7 8 7 8 5 3 2 5 6 7 10 17 16 19 16 19 20 24 26 23 25 28 29 28 12 12 16 16 17
6 1 5 5 6 8 9 15 13 7 2 8 6 12 5 6 6 6 7 7 5 6 7 5 5 9 16 17 18 21 20 21 23 23 22 25 27 26 7 6 10 11 13 14
6 3 2 7 11 14 17 19 16 9 7 4 8 6 6 7 8 8 7 8 7 7 7 7 6 7 14 13 13 16 20 23 24 23 22 24 26 13 3 6 7 10 12 14
4 2 2 5 11 10 15 15 14 12 5 6 7 7 7 6 7 9 9 9 7 8 11 11 9 11 14 13 8 11 17 27 25 21 22 20 20 2 4 6 8 13 12 13
3 2 3 4 10 15 9 10 13 8 5 5 6 4 11 11 10 7 7 8 7 9 11 10 7 13 17 17 13 13 20 24 22 18 20 17 3 7 8 7 11 15 15 14
4 3 2 3 5 2 7 17 8 9 12 11 9 8 6 5 6 6 6 6 7 9 9 9 13 17 19 21 19 15 19 17 19 17 10 9 8 10 10 12 14 15 14 12
7 4 1 2 2 7 11 5 6 5 3 8 6 8 7 9 8 6 6 5 6 6 12 17 18 21 22 23 24 14 13 14 15 10 7 8 9 10 11 14 14 16 15 13
8 6 4 0 2 3 4 12 15 8 3 6 5 6 5 6 6 5 7 7 8 16 21 19 18 20 20 22 20 13 11 10 11 5 7 9 10 13 13 14 16 12 8 10
5 2 4 3 4 6 1 8 8 2 5 6 5 6 6 3 3 6 7 7 15 20 18 18 16 16 20 20 18 9 9 7 6 8 11 14 15 14 14 13 11 10 9 8
5 7 5 4 4 4 7 3 4 7 8 8 3 4 5 4 6 6 7 8 12 16 16 16 12 16 18 15 11 9 10 10 10 13 17 17 16 15 12 7 6 8 13 15
3 2 2 3 4 7 2 5 7 1 1 4 5 6 2 6 6 7 7 7 11 15 13 12 17 16 14 12 12 11 5 11 15 19 21 18 14 8 9 6 5 9 16 16
5 5 3 2 2 5 6 6 4 3 4 5 7 6 7 6 9 10 6 7 10 13 10 16 13 12 12 12 9 4 15 17 22 24 20 12 11 14 18 18 18 19 17 17
5 2 4 5 7 9 6 7 6 8 8 6 6 5 6 8 9 5 6 6 12 11 16 12 11 10 10 10 16 17 19 26 26 21 15 15 19 24 25 25 26 25 23 22
1 2 2 4 6 6 8 6 7 8 7 6 6 8 10 9 7 8 6 10 12 15 16 12 8 5 6 18 18 19 23 28 24 18 15 17 18 23 23 23 24 25 25 24
Wind_Direction
206 133 350 96 52 27 318 323 310 306 24 36 345 337 307 289 278 280 107 119 118 117 128 113 106 115 91 157 148 61 35 23 15 6 1 352 337 328 318 318 304 295 285 261
330 238 97 74 6 352 302 318 341 351 2 14 338 303 279 285 203 116 111 111 125 117 88 82 75 66 59 10 120 79 47 27 16 10 2 355 343 332 328 328 330 312 294 275
25 149 103 34 347 320 333 42 11 354 344 325 304 314 308 291 129 132 120 120 118 115 101 90 71 50 26 33 69 81 51 39 25 15 7 0 355 347 346 343 336 337 329 291
293 140 108 250 316 49 1 17 13 334 337 291 4 290 298 354 27 45 121 63 37 114 83 62 58 56 50 44 33 25 35 33 28 16 15 12 2 347 341 346 351 8 22 32
265 352 54 19 32 34 268 338 283 279 275 336 346 23 3 43 40 47 48 43 42 39 50 41 39 32 39 34 30 21 21 23 23 20 20 13 360 352 349 -0 9 17 12 1
263 270 148 116 30 318 340 8 329 291 266 81 254 275 350 21 44 71 54 45 57 46 32 29 31 21 27 37 22 16 12 16 7 7 9 7 6 356 351 359 13 13 19 30
322 301 84 106 26 19 22 15 333 344 13 254 356 3 238 60 77 78 73 76 51 45 44 39 25 17 10 1 14 9 15 8 7 12 4 3 358 3 1 358 359 20 15 16
332 70 20 32 124 259 5 40 157 288 331 273 286 250 212 71 109 88 83 89 84 68 64 44 53 23 12 16 357 344 356 353 9 10 355 354 350 0 2 356 9 21 26 26
19 300 358 342 63 85 349 341 229 314 287 23 242 41 137 46 68 58 82 78 52 33 26 28 23 7 348 355 353 323 300 334 353 1 4 348 349 357 2 3 359 14 18 23
28 327 309 314 59 238 182 227 343 338 306 277 254 321 288 34 65 56 22 79 65 43 24 28 15 359 338 335 311 312 299 348 7 1 346 357 354 349 352 356 354 354 4 14
39 138 298 355 298 331 332 7 20 127 122 241 313 249 355 319 151 149 86 83 76 56 11 346 299 322 316 333 347 3 7 1 359 2 2 0 355 348 341 349 351 356 0 7
355 118 284 272 281 272 246 7 79 123 270 245 221 276 270 54 99 97 94 96 85 168 195 279 290 306 322 0 2 11 9 3 354 350 347 348 342 335 336 337 337 349 357 7
3 350 6 326 4 35 31 339 316 268 189 207 234 273 305 75 68 89 97 108 147 353 327 303 341 20 360 2 9 7 2 355 345 337 336 335 331 329 329 321 346 355 1 11
88 94 184 208 280 320 309 312 300 273 166 268 245 284 314 63 70 54 51 37 18 7 20 28 3 358 3 345 351 348 354 345 341 340 331 326 325 326 326 352 357 8 23 26
126 196 267 298 308 298 284 281 288 292 275 288 281 338 54 49 50 37 20 8 10 12 360 3 344 339 340 339 355 0 352 343 331 327 326 322 324 317 331 12 41 51 52 59
181 252 297 304 288 310 322 311 302 288 304 13 19 89 71 40 32 27 358 348 12 5 352 337 332 337 328 328 342 347 346 335 325 324 323 324 332 270 61 51 72 73 78 82
58 73 46 269 345 323 314 15 331 301 355 53 45 25 27 17 9 345 24 25 3 341 329 332 331 331 327 317 306 325 337 319 325 327 329 333 22 67 78 84 83 85 83 82
118 101 137 265 335 292 251 328 317 6 60 55 43 15 356 329 314 321 79 23 344 326 334 333 328 318 319 319 306 299 322 311 321 324 14 38 54 79 86 94 90 86 80 81
133 129 227 151 195 262 289 8 22 22 48 50 20 343 1 0 331 338 35 344 317 344 326 324 320 318 320 319 313 287 310 314 329 329 34 36 68 84 95 94 91 88 83 80
149 129 130 305 199 266 292 32 4 331 267 4 354 324 337 358 342 312 356 337 341 347 332 327 337 332 322 337 330 312 305 326 341 46 63 81 90 99 95 92 91 88 70 78
136 134 220 231 250 278 358 64 324 337 259 318 309 342 346 328 246 285 325 348 336 332 334 335 336 337 342 339 346 356 0 29 85 91 92 99 104 103 102 100 92 72 68 80
170 163 208 196 208 260 5 35 121 231 267 281 353 325 300 323 305 301 320 323 326 336 332 336 341 327 321 341 5 9 22 100 105 103 102 102 100 99 97 70 43 77 87 77
338 99 218 159 243 299 324 191 221 213 215 313 299 290 257 297 294 308 318 329 326 328 333 339 330 321 327 339 337 337 114 121 114 110 107 106 107 64 13 17 38 87 94 77
316 330 289 354 293 306 329 331 43 2 283 326 30 3 344 327 323 317 331 325 326 327 335 328 326 323 325 345 350 128 135 120 114 113 121 106 62 73 82 80 80 75 74 68
248 256 321 309 333 341 345 323 313 335 63 30 0 339 325 309 309 335 322 322 318 329 320 322 315 320 334 1 118 127 126 127 123 124 111 85 85 84 82 78 79 79 73 71
16 261 108 239 288 271 288 354 33 53 25 5 341 319 324 352 338 333 316 313 315 310 308 309 307 314 19 114 114 123 132 129 128 125 106 100 95 92 91 89 82 75 73 72